EW7246 Weather Reports


Display with metric or nautical units.
time (UTC)temp
F
wind
direction
speed
MPH
gust
MPH
rain 1hr
in
rain 24hr
in
rain mn
in
humidity
%
barometer
mb
20260906203047 87 147 0.0 0.0 0.00 0.00 0.00 59 1006.2
20260906201548 86 157 0.0 0.0 0.00 0.00 0.00 58 1006.4
20260906200042 86 154 0.0 0.0 0.00 0.00 0.00 59 1006.4
20260906194546 85 205 0.0 0.0 0.00 0.00 0.00 59 1006.7
20260906193036 85 168 0.0 0.0 0.00 0.00 0.00 60 1006.9
20260906191534 84 161 0.0 0.0 0.00 0.00 0.00 62 1007.1
20260906190030 83 158 0.0 0.0 0.00 0.00 0.00 65 1007.3
20260906184528 82 195 0.0 0.0 0.00 0.00 0.00 66 1007.5
20260906183033 82 192 0.0 0.0 0.00 0.00 0.00 68 1007.6
20260906181534 80 176 0.0 0.0 0.00 0.00 0.00 71 1008.0
20260906180026 79 149 0.0 0.0 0.00 0.00 0.00 72 1008.1
20260906174514 78 205 0.0 0.0 0.00 0.00 0.00 74 1008.2
20260906173011 78 205 0.0 0.0 0.00 0.00 0.00 75 1008.4
20260906171508 76 185 0.0 0.0 0.00 0.00 0.00 77 1008.6
20260906170006 76 156 0.0 0.0 0.00 0.00 0.00 77 1008.9
20260906164507 76 237 0.0 0.0 0.00 0.00 0.00 77 1009.0
20260906163002 75 186 0.0 0.0 0.00 0.00 0.00 80 1009.3
20260906161621 74 178 0.0 0.0 0.00 0.00 0.00 80 1009.2
20260906160057 74 139 0.0 0.0 0.00 0.00 0.00 81 1009.0
20260906154559 73 178 0.0 0.0 0.00 0.00 0.00 82 1009.0
20260906153110 72 199 0.0 0.0 0.00 0.00 0.00 83 1009.0
20260906151554 72 190 0.0 0.0 0.00 0.00 0.00 85 1009.1
20260906150051 71 192 0.0 0.0 0.00 0.00 0.00 87 1009.1
20260906144550 70 205 0.0 0.0 0.00 0.00 0.00 88 1009.3
20260906143045 69 210 0.0 0.0 0.00 0.00 0.00 90 1009.2
20260906141555 68 285 0.0 0.0 0.00 0.00 0.00 91 1009.3
20260906140038 66 317 0.0 0.0 0.00 0.00 0.00 91 1008.9
20260906134532 65 317 0.0 0.0 0.00 0.00 0.00 90 1008.8
20260906133034 63 317 0.0 0.0 0.00 0.00 0.00 90 1008.7
20260906131524 63 317 0.0 0.0 0.00 0.00 0.00 89 1008.3
20260906130024 64 127 0.0 0.0 0.00 0.00 0.00 89 1008.1
20260906124522 64 127 0.0 0.0 0.00 0.00 0.00 89 1007.6
20260906123023 64 127 0.0 0.0 0.00 0.00 0.00 89 1007.5
20260906121531 64 129 0.0 0.0 0.00 0.00 0.00 89 1007.8
20260906120017 64 107 0.0 0.0 0.00 0.00 0.00 89 1007.7
20260906114528 64 109 0.0 0.0 0.00 0.00 0.00 89 1007.9
20260906113016 64 76 0.0 0.0 0.00 0.00 0.00 88 1007.1
20260906111516 64 159 0.0 0.0 0.00 0.00 0.00 87 1007.7
20260906110015 64 147 0.0 0.0 0.00 0.00 0.00 86 1007.8
20260906104515 65 82 0.0 0.0 0.00 0.00 0.00 87 1007.4
20260906103016 65 83 0.0 0.0 0.00 0.00 0.00 86 1007.7
20260906101514 65 72 0.0 0.0 0.00 0.00 0.00 86 1007.2
20260906100025 65 76 0.0 0.0 0.00 0.00 0.00 85 1007.4
20260906094514 65 76 0.0 0.0 0.00 0.00 0.00 85 1008.2
20260906093015 66 297 0.0 0.0 0.00 0.00 0.00 85 1008.0
20260906091512 66 114 0.0 0.0 0.00 0.00 0.00 85 1006.9
20260906090012 66 94 0.0 0.0 0.00 0.00 0.00 85 1006.7
20260906084512 65 94 0.0 0.0 0.00 0.00 0.00 85 1007.2
20260906083010 65 60 0.0 0.0 0.00 0.00 0.00 87 1006.8
20260906081508 64 59 0.0 0.0 0.00 0.00 0.00 89 1008.5
20260906080007 64 38 0.0 0.0 0.00 0.00 0.00 90 1010.1
20260906074506 64 260 0.0 0.0 0.00 0.00 0.00 89 1010.8
20260906073007 64 14 0.0 0.0 0.00 0.00 0.00 89 1010.4
20260906071504 64 332 0.0 0.0 0.00 0.00 0.00 90 1010.7
20260906070003 64 338 0.0 0.0 0.00 0.00 0.00 89 1011.1
20260906064500 64 338 0.0 7.0 0.00 0.00 0.00 88 1010.3
20260906063058 65 304 13.0 33.0 0.00 0.00 0.00 87 1011.5
20260906061555 67 272 28.0 52.0 0.00 0.00 0.00 81 1011.4
20260906060109 74 262 0.0 4.0 0.00 0.00 0.00 74 1007.2
20260906054601 75 32 0.0 0.0 0.00 0.00 0.00 70 1006.4
20260906053050 76 360 0.0 3.0 0.00 0.00 0.00 69 1006.1
20260906051549 77 360 0.0 0.0 0.00 0.00 0.00 69 1006.8
20260906050049 80 360 0.0 1.0 0.00 0.00 0.00 65 1007.1
20260906044548 82 360 0.0 0.0 0.00 0.00 0.00 60 1006.9
20260906043050 82 360 0.0 0.0 0.00 0.00 0.00 58 1006.1
20260906041547 84 340 0.0 0.0 0.00 0.00 0.00 54 1007.1
20260906040046 85 163 0.0 0.0 0.00 0.00 0.00 46 1006.1
20260906034558 85 139 0.0 9.0 0.00 0.00 0.00 42 1005.1
20260906033046 84 171 0.0 8.0 0.00 0.00 0.00 43 1004.8
20260906031543 84 153 0.0 4.0 0.00 0.00 0.00 47 1004.8
20260906030044 84 165 0.0 18.0 0.00 0.00 0.00 52 1005.4
20260906024543 83 360 0.0 2.0 0.00 0.00 0.00 55 1005.8
20260906023044 82 360 0.0 0.0 0.00 0.00 0.00 55 1005.3
20260906021544 81 360 0.0 3.0 0.00 0.00 0.00 56 1005.1
20260906020041 81 360 0.0 0.0 0.00 0.00 0.00 56 1005.2
20260906014548 82 360 0.0 0.0 0.00 0.00 0.00 56 1005.5
20260906013041 82 360 0.0 0.0 0.00 0.00 0.00 55 1005.1
20260906011540 84 360 0.0 0.0 0.00 0.00 0.00 54 1004.9
20260906010053 84 105 0.0 0.0 0.00 0.00 0.00 51 1005.2
20260906004549 85 106 0.0 0.0 0.00 0.00 0.00 50 1005.5
20260906003039 86 101 0.0 0.0 0.00 0.00 0.00 47 1005.8
20260906001554 88 111 0.0 0.0 0.00 0.00 0.00 43 1005.4
20260906000038 89 115 0.0 0.0 0.00 0.00 0.00 40 1005.0
20260905234538 90 100 0.0 0.0 0.00 0.00 0.00 39 1004.7
20260905233039 91 123 0.0 1.0 0.00 0.00 0.00 39 1004.6
20260905231536 92 132 0.0 0.0 0.00 0.00 0.00 38 1004.4
20260905230038 93 107 0.0 0.0 0.00 0.00 0.00 39 1004.3
20260905224535 93 121 0.0 0.0 0.00 0.00 0.00 39 1004.2
20260905223047 92 83 0.0 2.0 0.00 0.00 0.00 41 1004.1
20260905221536 93 102 0.0 3.0 0.00 0.00 0.00 40 1003.9
20260905220032 93 105 0.0 3.0 0.00 0.00 0.00 40 1004.1
20260905214529 92 170 0.0 0.0 0.00 0.00 0.00 41 1004.5
20260905213027 92 149 0.0 1.0 0.00 0.00 0.00 41 1004.7
20260905211524 92 137 0.0 0.0 0.00 0.00 0.00 43 1005.0
20260905210032 92 101 0.0 1.0 0.00 0.00 0.00 43 1005.1
20260905204524 92 109 0.0 2.0 0.00 0.00 0.00 43 1005.2